User: anonymous   Login
Location: Norwich
(52.6280°N, 1.3030°E)
Time: 01:14:04
(UTC+00:00)
Language:

ATLAS 5 CENTAUR R/B - Orbit

View from above orbital plane
View from above orbital plane
View from above satellite
View from above satellite

Ground track
Ground track

The orbit data is extracted from the following two-line orbital elements,

1 32379U 07060B   18017.75074790 0.00001300  00000-0  36363-3 0    04
2 32379  60.9603  13.7261 5111248 335.4811   6.9614  5.39474037    05
Epoch (UTC): 17 January 2018 18:01:04
Eccentricity: 0.5111248
inclination: 60.9603°
perigee height: 335 km
apogee height: 14373 km
right ascension of ascending node: 13.7261°
argument of perigee: 335.4811°
revolutions per day: 5.39474037
mean anomaly at epoch: 6.9614°
orbit number at epoch: 0

The dashed part of the orbit path shows where the satellite is in the earth's shadow,  

DLR